�v������,���r���O(���x),�����t���O,���r���O(���x),�����t���O,��1(���x),�����t���O,�������x,�����t���O
1/1/2003 0:00,26.6,1,0,1,16.4,1,8.9,1
1/1/2003 0:15,26.8,1,0,1,16.8,1,7.7,1
1/1/2003 0:30,26.8,1,0,1,17.2,1,7.9,1
1/1/2003 0:45,24.7,1,0,1,17.2,1,7.1,1
1/1/2003 1:00,23.5,1,0,1,17.1,1,6.9,1
1/1/2003 1:15,22.8,1,0,1,17,1,7.1,1
1/1/2003 1:30,22.2,1,0,1,16.9,1,7.3,1
1/1/2003 1:45,21.8,1,0,1,16.7,1,7.6,1
1/1/2003 2:00,21.4,1,0,1,16.5,1,7.8,1
1/1/2003 2:15,21.1,1,0,1,16.4,1,8,1
1/1/2003 2:30,20.7,1,0,1,16.3,1,8.3,1
1/1/2003 2:45,20.4,1,0,1,16.2,1,8.5,1
1/1/2003 3:00,20.1,1,0,1,16.2,1,8.7,1
1/1/2003 3:15,19.9,1,0,1,16.1,1,8.9,1
1/1/2003 3:30,19.7,1,0,1,16,1,9.1,1
1/1/2003 3:45,19.5,1,0,1,16,1,8.2,1
1/1/2003 4:00,19.3,1,0,1,15.9,1,8.4,1
1/1/2003 4:15,19.1,1,0,1,15.8,1,8.6,1
1/1/2003 4:30,19,1,0,1,15.7,1,8.8,1
1/1/2003 4:45,18.8,1,0,1,15.7,1,9,1
1/1/2003 5:00,18.6,1,0,1,15.7,1,9.2,1
1/1/2003 5:15,18.5,1,0,1,15.6,1,9.3,1
1/1/2003 5:30,18.3,1,0,1,15.5,1,9.5,1
1/1/2003 5:45,18.2,1,0,1,15.4,1,9.7,1
1/1/2003 6:00,18.1,1,0,1,15.3,1,9.9,1
1/1/2003 6:15,17.9,1,0,1,15.2,1,10,1
1/1/2003 6:30,17.6,1,0,1,15.2,1,10.2,1
1/1/2003 6:45,17.3,1,0,1,15.2,1,10.4,1
1/1/2003 7:00,17.2,1,0,1,15.1,1,10.6,1
1/1/2003 7:15,17,1,0,1,15,1,10.8,1
1/1/2003 7:30,16.8,1,0,1,15,1,11,1
1/1/2003 7:45,16.6,1,0,1,15,1,11.2,1
1/1/2003 8:00,16.6,1,0,1,14.9,1,9.1,1
1/1/2003 8:15,16.5,1,0,1,14.8,1,9.2,1
1/1/2003 8:30,16.4,1,0,1,14.7,1,9.4,1
1/1/2003 8:45,16.4,1,0,1,14.7,1,9.6,1
1/1/2003 9:00,16.3,1,0,1,14.6,1,9.7,1
1/1/2003 9:15,16.2,1,0,1,14.6,1,9.9,1
1/1/2003 9:30,16.1,1,0,1,14.5,1,10.1,1
1/1/2003 9:45,18.8,1,0,1,14.5,1,8.5,1
1/1/2003 10:00,19.7,1,0,1,14.5,1,7.4,1
1/1/2003 10:15,21.6,1,0,1,14.6,1,7.7,1
1/1/2003 10:30,21.3,1,0,1,14.6,1,7.9,1
1/1/2003 10:45,22.2,1,0,1,14.6,1,8.1,1
1/1/2003 11:00,23,1,0,1,14.7,1,7.6,1
1/1/2003 11:15,23,1,0,1,14.7,1,7.8,1
1/1/2003 11:30,23.6,1,0,1,14.7,1,8,1
1/1/2003 11:45,24.1,1,0,1,14.8,1,8.2,1
1/1/2003 12:00,24.5,1,0,1,14.9,1,8.4,1
1/1/2003 12:15,25.1,1,0,1,15.1,1,7.3,1
1/1/2003 12:30,25.4,1,0,1,15.3,1,6.6,1
1/1/2003 12:45,25.2,1,0,1,15.6,1,6.8,1
1/1/2003 13:00,24.9,1,0,1,15.8,1,7.1,1
1/1/2003 13:15,24.9,1,0,1,15.9,1,7.3,1
1/1/2003 13:30,24.9,1,0,1,16,1,7.5,1
1/1/2003 13:45,24.9,1,0,1,16.1,1,7.7,1
1/1/2003 14:00,23.8,1,0,1,16.2,1,7.9,1
1/1/2003 14:15,23.3,1,0,1,16.3,1,8.2,1
1/1/2003 14:30,22.8,1,0,1,16.3,1,8.4,1
1/1/2003 14:45,22.5,1,0,1,16.3,1,8.6,1
1/1/2003 15:00,22.1,1,0,1,16.4,1,7,1
1/1/2003 15:15,22,1,0,1,16.4,1,7.2,1
1/1/2003 15:30,21.7,1,0,1,16.5,1,7.5,1
1/1/2003 15:45,21.8,1,0,1,16.5,1,7.7,1
1/1/2003 16:00,24.4,1,0,1,16.5,1,7.9,1
1/1/2003 16:15,25.2,1,0,1,16.4,1,8.2,1
1/1/2003 16:30,26,1,0,1,16.4,1,8.4,1
1/1/2003 16:45,25.3,1,0,1,16.4,1,7.9,1
1/1/2003 17:00,25.3,1,0,1,16.4,1,7.3,1
1/1/2003 17:15,25.3,1,0,1,16.5,1,7.2,1
1/1/2003 17:30,24.7,1,0,1,16.6,1,7.5,1
1/1/2003 17:45,22.9,1,0,1,16.6,1,7.7,1
1/1/2003 18:00,22,1,0,1,16.5,1,8,1
1/1/2003 18:15,21.6,1,0,1,16.4,1,7.1,1
1/1/2003 18:30,24.1,1,0,1,16.2,1,7.4,1
1/1/2003 18:45,23.1,1,0,1,16.2,1,7.2,1
1/1/2003 19:00,21.7,1,0,1,16.1,1,7.5,1
1/1/2003 19:15,21,1,0,1,16,1,7.7,1
1/1/2003 19:30,22.1,1,0,1,15.9,1,7.9,1
1/1/2003 19:45,23.8,1,0,1,15.8,1,8.2,1
1/1/2003 20:00,24.5,1,0,1,15.7,1,8.4,1
1/1/2003 20:15,25.1,1,0,1,15.7,1,8.6,1
1/1/2003 20:30,25.2,1,0,1,15.7,1,8.8,1
1/1/2003 20:45,25,1,0,1,15.8,1,9,1
1/1/2003 21:00,24.3,1,0,1,15.9,1,9.1,1
1/1/2003 21:15,25.4,1,0,1,15.8,1,9.3,1
1/1/2003 21:30,25.7,1,0,1,15.8,1,9.5,1
1/1/2003 21:45,26,1,0,1,15.7,1,9.7,1
1/1/2003 22:00,26.2,1,0,1,15.7,1,9.9,1
1/1/2003 22:15,26.1,1,0,1,15.6,1,10.1,1
1/1/2003 22:30,26.4,1,0,1,15.5,1,10.3,1
1/1/2003 22:45,26.6,1,0,1,15.4,1,10.5,1
1/1/2003 23:00,26.9,1,0,1,15.4,1,10.7,1
1/1/2003 23:15,27,1,0,1,15.4,1,10.9,1
1/1/2003 23:30,24.6,1,0,1,15.4,1,9.3,1
1/1/2003 23:45,23.4,1,0,1,16.8,1,8.1,1
1/2/2003 0:00,22.4,1,0,1,16.8,1,8.3,1
1/2/2003 0:15,21.6,1,0,1,16.6,1,8.5,1
1/2/2003 0:30,21,1,0,1,16.5,1,8.7,1
1/2/2003 0:45,20.6,1,0,1,16.4,1,8.9,1
1/2/2003 1:00,20.1,1,0,1,16.3,1,9.1,1
1/2/2003 1:15,19.8,1,0,1,16.1,1,9.3,1
1/2/2003 1:30,19.5,1,0,1,15.9,1,9.5,1
1/2/2003 1:45,19.3,1,0,1,15.8,1,9.7,1
1/2/2003 2:00,19,1,0,1,15.7,1,9.8,1
1/2/2003 2:15,18.8,1,0,1,15.6,1,10,1
1/2/2003 2:30,18.6,1,0,1,15.5,1,10.2,1
1/2/2003 2:45,18.4,1,0,1,15.4,1,10.4,1
1/2/2003 3:00,18.2,1,0,1,15.4,1,10.6,1
1/2/2003 3:15,18,1,0,1,15.3,1,10.8,1
1/2/2003 3:30,17.8,1,0,1,15.2,1,11,1
1/2/2003 3:45,17.6,1,0,1,15.1,1,11.2,1
1/2/2003 4:00,17.4,1,0,1,15,1,11.4,1
1/2/2003 4:15,17.2,1,0,1,14.9,1,11.5,1
1/2/2003 4:30,17,1,0,1,14.8,1,11.7,1
1/2/2003 4:45,16.8,1,0,1,14.7,1,11.9,1
1/2/2003 5:00,16.6,1,0,1,14.6,1,12,1
1/2/2003 5:15,16.5,1,0,1,14.6,1,12.2,1
1/2/2003 5:30,16.3,1,0,1,14.5,1,12.3,1
1/2/2003 5:45,16.2,1,0,1,14.5,1,12.4,1
1/2/2003 6:00,16,1,0,1,14.4,1,12.6,1
1/2/2003 6:15,15.9,1,0,1,14.2,1,12.7,1
1/2/2003 6:30,15.7,1,0,1,14.1,1,12.8,1
1/2/2003 6:45,15.6,1,0,1,14.1,1,13,1
1/2/2003 7:00,15.4,1,0,1,14,1,13.1,1
1/2/2003 7:15,15.3,1,0,1,13.9,1,13.2,1
1/2/2003 7:30,15.2,1,0,1,13.8,1,13.3,1
1/2/2003 7:45,15,1,0,1,13.8,1,13.4,1
1/2/2003 8:00,14.8,1,0,1,13.7,1,13.5,1
1/2/2003 8:15,14.6,1,0,1,13.6,1,13.6,1
1/2/2003 8:30,14.5,1,0,1,13.5,1,13.7,1
1/2/2003 8:45,14.5,1,0,1,13.4,1,13.8,1
1/2/2003 9:00,14.4,1,0,1,13.3,1,13.9,1
1/2/2003 9:15,14.4,1,0,1,13.2,1,13.9,1
1/2/2003 9:30,14.5,1,0,1,13.1,1,14,1
1/2/2003 9:45,14.7,1,0,1,13.1,1,14.1,1
1/2/2003 10:00,14.8,1,0,1,13,1,14.2,1
1/2/2003 10:15,14.9,1,0,1,13,1,14.2,1
1/2/2003 10:30,15,1,0,1,12.9,1,14.3,1
1/2/2003 10:45,15,1,0,1,12.9,1,14.4,1
1/2/2003 11:00,15,1,0,1,12.9,1,14.4,1
1/2/2003 11:15,15.1,1,0,1,13,1,14.4,1
1/2/2003 11:30,15.1,1,0,1,13.3,1,14.5,1
1/2/2003 11:45,15.1,1,0,1,13.7,1,14.5,1
1/2/2003 12:00,15.1,1,0,1,13.9,1,14.6,1
1/2/2003 12:15,15.1,1,0,1,14,1,14.6,1
1/2/2003 12:30,15.2,1,0,1,14,1,14.7,1
1/2/2003 12:45,15.2,1,0,1,13.9,1,14.7,1
1/2/2003 13:00,15.2,1,0,1,13.8,1,14.8,1
1/2/2003 13:15,15.3,1,0,1,13.7,1,14.8,1
1/2/2003 13:30,15.3,1,0,1,13.6,1,14.8,1
1/2/2003 13:45,15.3,1,0,1,13.6,1,14.9,1
1/2/2003 14:00,15.3,1,0,1,13.6,1,14.9,1
1/2/2003 14:15,15.3,1,0,1,13.6,1,14.9,1
1/2/2003 14:30,15.3,1,0,1,13.6,1,15,1
1/2/2003 14:45,15.3,1,0,1,13.7,1,15,1
1/2/2003 15:00,15.2,1,0,1,13.7,1,15,1
1/2/2003 15:15,15.2,1,0,1,13.7,1,15.1,1
1/2/2003 15:30,15.2,1,0,1,13.7,1,15.1,1
1/2/2003 15:45,15.2,1,0,1,13.6,1,15.2,1
1/2/2003 16:00,15.1,1,0,1,13.6,1,15.2,1
1/2/2003 16:15,15,1,0,1,13.5,1,15.3,1
1/2/2003 16:30,14.9,1,0,1,13.4,1,15.3,1
1/2/2003 16:45,14.9,1,0,1,13.3,1,15.4,1
1/2/2003 17:00,14.8,1,0,1,13.2,1,15.4,1
1/2/2003 17:15,14.7,1,0,1,13,1,15.5,1
1/2/2003 17:30,14.6,1,0,1,12.9,1,15.5,1
1/2/2003 17:45,14.5,1,0,1,12.8,1,15.6,1
1/2/2003 18:00,14.4,1,0,1,12.7,1,15.6,1
1/2/2003 18:15,14.4,1,0,1,12.6,1,15.6,1
1/2/2003 18:30,14.3,1,0,1,12.5,1,15.7,1
1/2/2003 18:45,14.2,1,0,1,12.4,1,15.7,1
1/2/2003 19:00,14.1,1,0,1,12.3,1,15.7,1
1/2/2003 19:15,14,1,0,1,12.2,1,15.8,1
1/2/2003 19:30,13.9,1,0,1,12.1,1,15.8,1
1/2/2003 19:45,13.9,1,0,1,12,1,15.8,1
1/2/2003 20:00,13.8,1,0,1,11.9,1,15.8,1
1/2/2003 20:15,13.7,1,0,1,11.8,1,15.8,1
1/2/2003 20:30,13.6,1,0,1,11.7,1,15.9,1
1/2/2003 20:45,13.5,1,0,1,11.6,1,15.9,1
1/2/2003 21:00,13.4,1,0,1,11.5,1,15.9,1
1/2/2003 21:15,13.3,1,0,1,11.4,1,15.9,1
1/2/2003 21:30,13.1,1,0,1,11.3,1,15.9,1
1/2/2003 21:45,13,1,0,1,11.2,1,15.9,1
1/2/2003 22:00,13,1,0,1,11.1,1,10.4,1
1/2/2003 22:15,16.5,1,0,1,11,1,10.5,1
1/2/2003 22:30,17.2,1,0,1,11.1,1,10.7,1
1/2/2003 22:45,18.6,1,0,1,11,1,10.8,1
1/2/2003 23:00,19.4,1,0,1,11,1,11,1
1/2/2003 23:15,19.7,1,0,1,11.1,1,11.1,1
1/2/2003 23:30,20.2,1,0,1,11.9,1,11.3,1
1/2/2003 23:45,20.7,1,0,1,12.5,1,11.4,1
1/3/2003 0:00,21,1,0,1,12.9,1,11.5,1
1/3/2003 0:15,20.6,1,0,1,13.1,1,11.7,1
1/3/2003 0:30,21.4,1,0,1,13.2,1,11.8,1
1/3/2003 0:45,21.5,1,0,1,13.3,1,11.9,1
1/3/2003 1:00,21.9,1,0,1,13.6,1,12,1
1/3/2003 1:15,20.2,1,0,1,13.7,1,12.1,1
1/3/2003 1:30,18.9,1,0,1,14.5,1,12.2,1
1/3/2003 1:45,18.1,1,0,1,14.1,1,12.3,1
1/3/2003 2:00,17.5,1,0,1,13.9,1,12.5,1
1/3/2003 2:15,17,1,0,1,13.7,1,12.6,1
1/3/2003 2:30,16.6,1,0,1,13.6,1,12.7,1
1/3/2003 2:45,16.2,1,0,1,13.4,1,12.8,1
1/3/2003 3:00,15.8,1,0,1,13.3,1,12.8,1
1/3/2003 3:15,15.5,1,0,1,13,1,12.9,1
1/3/2003 3:30,15.2,1,0,1,12.9,1,13,1
1/3/2003 3:45,15.5,1,0,1,12.8,1,13.1,1
1/3/2003 4:00,17.5,1,0,1,12.7,1,13.2,1
1/3/2003 4:15,18.2,1,0,1,12.6,1,13.2,1
1/3/2003 4:30,17.8,1,0,1,12.5,1,13.3,1
1/3/2003 4:45,19.6,1,0,1,12.5,1,13.4,1
1/3/2003 5:00,20.4,1,0,1,12.4,1,13.4,1
1/3/2003 5:15,21.2,1,0,1,12.3,1,13.5,1
1/3/2003 5:30,21.6,1,0,1,12.2,1,13.6,1
1/3/2003 5:45,22,1,0,1,12.1,1,13.6,1
1/3/2003 6:00,22.1,1,0,1,12,1,13.7,1
1/3/2003 6:15,22.4,1,0,1,12,1,13.8,1
1/3/2003 6:30,19.7,1,0,1,11.9,1,13.8,1
1/3/2003 6:45,18.5,1,0,1,11.9,1,13.9,1
1/3/2003 7:00,17.7,1,0,1,11.9,1,13.9,1
1/3/2003 7:15,17,1,0,1,11.8,1,13.9,1
1/3/2003 7:30,16.5,1,0,1,11.8,1,14,1
1/3/2003 7:45,16.1,1,0,1,11.7,1,14,1
1/3/2003 8:00,15.7,1,0,1,11.7,1,14.1,1
1/3/2003 8:15,15.4,1,0,1,11.6,1,14.1,1
1/3/2003 8:30,15.1,1,0,1,11.6,1,14.1,1
1/3/2003 8:45,14.9,1,0,1,11.6,1,14.2,1
1/3/2003 9:00,14.7,1,0,1,11.5,1,14.2,1
1/3/2003 9:15,14.5,1,0,1,11.4,1,14.2,1
1/3/2003 9:30,14.4,1,0,1,11.3,1,14.2,1
1/3/2003 9:45,14.2,1,0,1,11.3,1,14.3,1
1/3/2003 10:00,14.1,1,0,1,11.3,1,14.3,1
1/3/2003 10:15,13.9,1,0,1,11.4,1,14.3,1
1/3/2003 10:30,13.8,1,0,1,11.4,1,14.3,1
1/3/2003 10:45,13.7,1,0,1,11.4,1,14.3,1
1/3/2003 11:00,13.6,1,0,1,11.3,1,14.3,1
1/3/2003 11:15,13.9,1,0,1,11.2,1,9.4,1
1/3/2003 11:30,13.9,1,0,1,11,1,9.5,1
1/3/2003 11:45,13.7,1,0,1,10.9,1,9.7,1
1/3/2003 12:00,13.6,1,0,1,10.8,1,9.8,1
1/3/2003 12:15,13.4,1,0,1,10.7,1,9.9,1
1/3/2003 12:30,13.2,1,0,1,10.6,1,10.1,1
1/3/2003 12:45,13.1,1,0,1,10.5,1,10.2,1
1/3/2003 13:00,13,1,0,1,10.4,1,10.3,1
1/3/2003 13:15,12.8,1,0,1,10.3,1,10.4,1
1/3/2003 13:30,12.7,1,0,1,10.3,1,10.6,1
1/3/2003 13:45,12.6,1,0,1,10.1,1,10.7,1
1/3/2003 14:00,12.5,1,0,1,10.1,1,10.8,1
1/3/2003 14:15,12.3,1,0,1,10,1,10.9,1
1/3/2003 14:30,12.2,1,0,1,9.9,1,11,1
1/3/2003 14:45,12.1,1,0,1,9.8,1,11.1,1
1/3/2003 15:00,12,1,0,1,9.8,1,11.2,1
1/3/2003 15:15,11.8,1,0,1,9.7,1,11.3,1
1/3/2003 15:30,11.7,1,0,1,9.6,1,11.4,1
1/3/2003 15:45,11.6,1,0,1,9.6,1,11.5,1
1/3/2003 16:00,11.5,1,0,1,9.5,1,11.6,1
1/3/2003 16:15,11.4,1,0,1,9.4,1,11.7,1
1/3/2003 16:30,11.3,1,0,1,9.4,1,11.8,1
1/3/2003 16:45,11.2,1,0,1,9.3,1,11.9,1
1/3/2003 17:00,11,1,0,1,9.2,1,12,1
1/3/2003 17:15,11,1,0,1,9.2,1,12.1,1
1/3/2003 17:30,10.9,1,0,1,9.1,1,12.2,1
1/3/2003 17:45,10.8,1,0,1,9.1,1,12.3,1
1/3/2003 18:00,10.7,1,0,1,9,1,12.3,1
1/3/2003 18:15,10.7,1,0,1,9,1,12.4,1
1/3/2003 18:30,10.6,1,0,1,8.9,1,12.5,1
1/3/2003 18:45,10.6,1,0,1,8.8,1,12.6,1
1/3/2003 19:00,10.5,1,0,1,8.8,1,12.6,1
1/3/2003 19:15,10.4,1,0,1,8.7,1,12.7,1
1/3/2003 19:30,10.4,1,0,1,8.7,1,12.8,1
1/3/2003 19:45,10.3,1,0,1,8.6,1,12.8,1
1/3/2003 20:00,10.3,1,0,1,8.6,1,12.9,1
1/3/2003 20:15,10.2,1,0,1,8.6,1,13,1
1/3/2003 20:30,10.1,1,0,1,8.5,1,13,1
1/3/2003 20:45,10.1,1,0,1,8.5,1,13.1,1
1/3/2003 21:00,10,1,0,1,8.4,1,13.1,1
1/3/2003 21:15,9.9,1,0,1,8.4,1,13.2,1
1/3/2003 21:30,9.9,1,0,1,8.3,1,13.2,1
1/3/2003 21:45,9.9,1,0,1,8.3,1,13.3,1
1/3/2003 22:00,9.8,1,0,1,8.2,1,13.3,1
1/3/2003 22:15,9.8,1,0,1,8.2,1,13.4,1
1/3/2003 22:30,12.7,1,0,1,8.2,1,13.4,1
1/3/2003 22:45,14.6,1,0,1,8.2,1,13.4,1
1/3/2003 23:00,14.2,1,0,1,8.2,1,13.5,1
1/3/2003 23:15,16.3,1,0,1,8.2,1,9,1
1/3/2003 23:30,14.7,1,0,1,8.3,1,9.2,1
1/3/2003 23:45,16.3,1,0,1,8.7,1,9.3,1
1/4/2003 0:00,16.2,1,0,1,9.2,1,9.4,1
1/4/2003 0:15,14.9,1,0,1,9.2,1,9.6,1
1/4/2003 0:30,14.2,1,0,1,9.9,1,9.7,1
1/4/2003 0:45,13.8,1,0,1,11.8,1,9.8,1
1/4/2003 1:00,13.4,1,0,1,13.1,1,9.9,1
1/4/2003 1:15,13.2,1,0,1,13.4,1,10,1
1/4/2003 1:30,13,1,0,1,12.9,1,10.2,1
1/4/2003 1:45,12.8,1,0,1,12.5,1,10.3,1
1/4/2003 2:00,12.6,1,0,1,12.2,1,10.4,1
1/4/2003 2:15,12.3,1,0,1,11.9,1,10.5,1
1/4/2003 2:30,12.1,1,0,1,11.7,1,10.7,1
1/4/2003 2:45,11.8,1,0,1,11.5,1,10.8,1
1/4/2003 3:00,11.6,1,0,1,11.4,1,10.9,1
1/4/2003 3:15,11.4,1,0,1,11.2,1,11,1
1/4/2003 3:30,12.6,1,0,1,11.1,1,11.1,1
1/4/2003 3:45,15.2,1,0,1,11,1,11.2,1
1/4/2003 4:00,13.8,1,0,1,11,1,11.3,1
1/4/2003 4:15,15.5,1,0,1,10.9,1,11.4,1
1/4/2003 4:30,17.7,1,0,1,10.8,1,11.5,1
1/4/2003 4:45,16.4,1,0,1,10.8,1,11.6,1
1/4/2003 5:00,17.8,1,0,1,10.8,1,11.7,1
1/4/2003 5:15,19.1,1,0,1,10.7,1,11.8,1
1/4/2003 5:30,18.9,1,0,1,10.7,1,11.8,1
1/4/2003 5:45,18,1,0,1,10.7,1,11.9,1
1/4/2003 6:00,19.7,1,0,1,10.6,1,12,1
1/4/2003 6:15,19.9,1,0,1,10.6,1,12.1,1
1/4/2003 6:30,17.5,1,0,1,10.5,1,12.2,1
1/4/2003 6:45,17.8,1,0,1,10.5,1,12.3,1
1/4/2003 7:00,16.1,1,0,1,10.5,1,12.3,1
1/4/2003 7:15,15.3,1,0,1,10.5,1,12.4,1
1/4/2003 7:30,14.8,1,0,1,10.5,1,12.5,1
1/4/2003 7:45,14.5,1,0,1,10.5,1,12.6,1
1/4/2003 8:00,16.3,1,0,1,10.4,1,8.5,1
1/4/2003 8:15,17.4,1,0,1,10.4,1,8.7,1
1/4/2003 8:30,16,1,0,1,10.3,1,8.8,1
1/4/2003 8:45,14.5,1,0,1,10.5,1,9,1
1/4/2003 9:00,14,1,0,1,10.6,1,9.1,1
1/4/2003 9:15,13.6,1,0,1,10.5,1,9.2,1
1/4/2003 9:30,12.1,1,0,1,10.5,1,9.3,1
1/4/2003 9:45,12,1,0,1,10.5,1,9.5,1
1/4/2003 10:00,12.3,1,0,1,10.5,1,9.6,1
1/4/2003 10:15,12.7,1,0,1,10.6,1,6.9,1
1/4/2003 10:30,12.9,1,0,1,10.9,1,7.2,1
1/4/2003 10:45,13.1,1,0,1,11,1,7.4,1
1/4/2003 11:00,13.3,1,0,1,11.1,1,7.5,1
1/4/2003 11:15,13.3,1,0,1,11.3,1,6.2,1
1/4/2003 11:30,13.3,1,0,1,11.8,1,6.4,1
1/4/2003 11:45,13.4,1,0,1,12.2,1,6.6,1
1/4/2003 12:00,13.4,1,0,1,12.6,1,6.8,1
1/4/2003 12:15,13.5,1,0,1,12.8,1,7,1
1/4/2003 12:30,13.6,1,0,1,13,1,7.2,1
1/4/2003 12:45,13.6,1,0,1,13.1,1,7.3,1
1/4/2003 13:00,13.7,1,0,1,13.2,1,7.5,1
1/4/2003 13:15,13.7,1,0,1,13.3,1,7.7,1
1/4/2003 13:30,13.8,1,0,1,13.4,1,7.9,1
1/4/2003 13:45,13.8,1,0,1,13.4,1,8,1
1/4/2003 14:00,13.9,1,0,1,13.5,1,8.2,1
1/4/2003 14:15,13.8,1,0,1,13.5,1,8.3,1
1/4/2003 14:30,13.8,1,0,1,13.5,1,8.5,1
1/4/2003 14:45,13.9,1,0,1,13.5,1,8.7,1
1/4/2003 15:00,13.9,1,0,1,13.5,1,8.8,1
1/4/2003 15:15,13.9,1,0,1,13.5,1,9,1
1/4/2003 15:30,13.9,1,0,1,13.5,1,9.2,1
1/4/2003 15:45,13.9,1,0,1,13.5,1,9.3,1
1/4/2003 16:00,13.9,1,0,1,13.5,1,9.5,1
1/4/2003 16:15,13.8,1,0,1,13.5,1,9.6,1
1/4/2003 16:30,13.8,1,0,1,13.5,1,9.8,1
1/4/2003 16:45,13.8,1,0,1,13.4,1,9.9,1
1/4/2003 17:00,13.8,1,0,1,13.3,1,10.1,1
1/4/2003 17:15,13.7,1,0,1,13.2,1,10.2,1
1/4/2003 17:30,13.7,1,0,1,13.1,1,10.4,1
1/4/2003 17:45,13.6,1,0,1,13,1,10.6,1
1/4/2003 18:00,13.6,1,0,1,12.9,1,10.7,1
1/4/2003 18:15,13.5,1,0,1,12.7,1,10.9,1
1/4/2003 18:30,13.4,1,0,1,12.6,1,11,1
1/4/2003 18:45,13.4,1,0,1,12.5,1,11.2,1
1/4/2003 19:00,13.4,1,0,1,12.4,1,11.3,1
1/4/2003 19:15,13.4,1,0,1,12.3,1,11.5,1
1/4/2003 19:30,13.3,1,0,1,12.2,1,11.6,1
1/4/2003 19:45,14.8,1,0,1,12,1,11.7,1
1/4/2003 20:00,17.3,1,0,1,12,1,11.9,1
1/4/2003 20:15,18.1,1,0,1,11.9,1,12,1
1/4/2003 20:30,19,1,0,1,11.9,1,12.1,1
1/4/2003 20:45,19.5,1,0,1,11.9,1,12.2,1
1/4/2003 21:00,19.7,1,0,1,12,1,8.9,1
1/4/2003 21:15,20.3,1,0,1,12,1,9,1
1/4/2003 21:30,20.7,1,0,1,12.2,1,9.2,1
1/4/2003 21:45,21.6,1,0,1,12.2,1,7.6,1
1/4/2003 22:00,22,1,0,1,12.3,1,7.8,1
1/4/2003 22:15,22.5,1,0,1,12.3,1,8,1
1/4/2003 22:30,22.8,1,0,1,12.5,1,8.2,1
1/4/2003 22:45,22.9,1,0,1,12.5,1,8.3,1
1/4/2003 23:00,23.1,1,0,1,12.4,1,8.5,1
1/4/2003 23:15,22.9,1,0,1,12.4,1,8.7,1
1/4/2003 23:30,22.5,1,0,1,12.3,1,8.9,1
1/4/2003 23:45,22.7,1,0,1,12.7,1,6.8,1
1/5/2003 0:00,23.2,1,0,1,13.6,1,7,1
1/5/2003 0:15,23.4,1,0,1,14.3,1,7.3,1
1/5/2003 0:30,21.9,1,0,1,14.6,1,7.5,1
1/5/2003 0:45,20.5,1,0,1,15.3,1,7.7,1
1/5/2003 1:00,19.6,1,0,1,16.4,1,7.9,1
1/5/2003 1:15,19,1,0,1,17.2,1,8.1,1
1/5/2003 1:30,18.7,1,0,1,17.6,1,8.3,1
1/5/2003 1:45,18.3,1,0,1,17.9,1,8.4,1
1/5/2003 2:00,18,1,0,1,17.2,1,8.6,1
1/5/2003 2:15,17.7,1,0,1,16.7,1,8.8,1
1/5/2003 2:30,17.4,1,0,1,16.2,1,8.9,1
1/5/2003 2:45,17.2,1,0,1,15.9,1,9.1,1
1/5/2003 3:00,16.9,1,0,1,15.6,1,9.2,1
1/5/2003 3:15,16.7,1,0,1,15.3,1,9.4,1
1/5/2003 3:30,16.5,1,0,1,15.1,1,9.6,1
1/5/2003 3:45,16.3,1,0,1,14.9,1,9.7,1
1/5/2003 4:00,16.1,1,0,1,14.7,1,9.8,1
1/5/2003 4:15,15.9,1,0,1,14.6,1,10,1
1/5/2003 4:30,15.7,1,0,1,14.4,1,10.1,1
1/5/2003 4:45,15.5,1,0,1,14.3,1,10.3,1
1/5/2003 5:00,15.3,1,0,1,14.1,1,10.5,1
1/5/2003 5:15,15.1,1,0,1,14,1,10.6,1
1/5/2003 5:30,14.9,1,0,1,13.8,1,10.8,1
1/5/2003 5:45,14.8,1,0,1,13.7,1,10.9,1
1/5/2003 6:00,14.5,1,0,1,13.6,1,11,1
1/5/2003 6:15,14.3,1,0,1,13.4,1,11.2,1
1/5/2003 6:30,14.1,1,0,1,13.3,1,11.3,1
1/5/2003 6:45,13.9,1,0,1,13.1,1,11.4,1
1/5/2003 7:00,13.8,1,0,1,13,1,11.6,1
1/5/2003 7:15,13.7,1,0,1,12.9,1,11.7,1
1/5/2003 7:30,13.5,1,0,1,12.8,1,11.8,1
1/5/2003 7:45,15.8,1,0,1,12.6,1,7.5,1
1/5/2003 8:00,18.8,1,0,1,12.4,1,7.6,1
1/5/2003 8:15,20.2,1,0,1,12.2,1,7.8,1
1/5/2003 8:30,19.2,1,0,1,12.1,1,8,1
1/5/2003 8:45,20.2,1,0,1,12.2,1,8.2,1
1/5/2003 9:00,19.4,1,0,1,12.2,1,8.3,1
1/5/2003 9:15,17.6,1,0,1,12.2,1,6.8,1
1/5/2003 9:30,16.9,1,0,1,12.2,1,7,1
1/5/2003 9:45,16.5,1,0,1,12.2,1,7.2,1
1/5/2003 10:00,16.2,1,0,1,12.2,1,7.4,1
1/5/2003 10:15,16.1,1,0,1,12.2,1,7.6,1
1/5/2003 10:30,16,1,0,1,12.3,1,7.8,1
1/5/2003 10:45,15.9,1,0,1,12.4,1,7.9,1
1/5/2003 11:00,15.9,1,0,1,12.5,1,8.1,1
1/5/2003 11:15,15.9,1,0,1,13,1,8.3,1
1/5/2003 11:30,16,1,0,1,13.3,1,8.4,1
1/5/2003 11:45,16.1,1,0,1,13.7,1,8.6,1
1/5/2003 12:00,15.9,1,0,1,13.9,1,8.7,1
1/5/2003 12:15,15.8,1,0,1,13.9,1,8.9,1
1/5/2003 12:30,15.6,1,0,1,13.8,1,9,1
1/5/2003 12:45,15.5,1,0,1,13.8,1,9.2,1
1/5/2003 13:00,15.3,1,0,1,13.7,1,9.3,1
1/5/2003 13:15,15.1,1,0,1,13.6,1,9.5,1
1/5/2003 13:30,15.1,1,0,1,13.6,1,9.6,1
1/5/2003 13:45,15,1,0,1,13.5,1,9.7,1
1/5/2003 14:00,14.9,1,0,1,13.5,1,9.9,1
1/5/2003 14:15,14.9,1,0,1,13.5,1,10,1
1/5/2003 14:30,14.8,1,0,1,13.4,1,10.2,1
1/5/2003 14:45,14.7,1,0,1,13.3,1,10.3,1
1/5/2003 15:00,14.6,1,0,1,13.3,1,10.5,1
1/5/2003 15:15,14.6,1,0,1,13.2,1,10.6,1
1/5/2003 15:30,14.5,1,0,1,13.1,1,10.8,1
1/5/2003 15:45,14.4,1,0,1,13.1,1,10.9,1
1/5/2003 16:00,14.3,1,0,1,13,1,11.1,1
1/5/2003 16:15,14.3,1,0,1,12.9,1,11.2,1
1/5/2003 16:30,14.2,1,0,1,12.8,1,11.4,1
1/5/2003 16:45,14.1,1,0,1,12.7,1,11.5,1
1/5/2003 17:00,14,1,0,1,12.6,1,11.6,1
1/5/2003 17:15,13.9,1,0,1,12.5,1,11.8,1
1/5/2003 17:30,13.8,1,0,1,12.4,1,11.9,1
1/5/2003 17:45,13.7,1,0,1,12.3,1,12,1
1/5/2003 18:00,13.6,1,0,1,12.2,1,12.1,1
1/5/2003 18:15,13.5,1,0,1,12,1,12.3,1
1/5/2003 18:30,13.5,1,0,1,11.9,1,12.4,1
1/5/2003 18:45,13.4,1,0,1,11.8,1,12.5,1
1/5/2003 19:00,13.3,1,0,1,11.7,1,12.6,1
1/5/2003 19:15,13.2,1,0,1,11.6,1,12.7,1
1/5/2003 19:30,13.1,1,0,1,11.5,1,12.8,1
1/5/2003 19:45,13.1,1,0,1,11.4,1,12.9,1
1/5/2003 20:00,17.4,1,0,1,11.3,1,13,1
1/5/2003 20:15,19.2,1,0,1,11.3,1,13.1,1
1/5/2003 20:30,19.6,1,0,1,11.2,1,13.2,1
1/5/2003 20:45,19.3,1,0,1,11.2,1,13.2,1
1/5/2003 21:00,18.8,1,0,1,11.3,1,13.3,1
1/5/2003 21:15,18.5,1,0,1,11.4,1,13.4,1
1/5/2003 21:30,18.4,1,0,1,11.5,1,7,1
1/5/2003 21:45,21.5,1,0,1,11.6,1,6.9,1
1/5/2003 22:00,21.9,1,0,1,11.6,1,6.5,1
1/5/2003 22:15,22.3,1,0,1,11.7,1,6.7,1
1/5/2003 22:30,22.3,1,0,1,11.8,1,7,1
1/5/2003 22:45,21.9,1,0,1,11.9,1,7.2,1
1/5/2003 23:00,22.1,1,0,1,12,1,7.4,1
1/5/2003 23:15,21.7,1,0,1,12.2,1,6.8,1
1/5/2003 23:30,21.7,1,0,1,13,1,7,1
1/5/2003 23:45,22,1,0,1,13.7,1,7.2,1
1/6/2003 0:00,21.9,1,0,1,14.1,1,7.4,1
1/6/2003 0:15,22.1,1,0,1,14.5,1,7.6,1
1/6/2003 0:30,19.9,1,0,1,14.8,1,7.8,1
1/6/2003 0:45,19,1,0,1,15.9,1,8,1
1/6/2003 1:00,18.4,1,0,1,15.9,1,8.1,1
1/6/2003 1:15,17.9,1,0,1,15.2,1,8.3,1
1/6/2003 1:30,17.5,1,0,1,14.7,1,8.5,1
1/6/2003 1:45,17.1,1,0,1,14.4,1,8.6,1
1/6/2003 2:00,16.8,1,0,1,14.1,1,8.8,1
1/6/2003 2:15,16.4,1,0,1,13.9,1,8.9,1
1/6/2003 2:30,16.1,1,0,1,13.7,1,9.1,1
1/6/2003 2:45,15.9,1,0,1,13.6,1,9.2,1
1/6/2003 3:00,15.6,1,0,1,13.4,1,9.4,1
1/6/2003 3:15,15.4,1,0,1,13.3,1,9.5,1
1/6/2003 3:30,15.2,1,0,1,13.2,1,9.6,1
1/6/2003 3:45,16.8,1,0,1,13,1,9.8,1
1/6/2003 4:00,18.4,1,0,1,12.9,1,9.9,1
1/6/2003 4:15,19.3,1,0,1,12.7,1,10,1
1/6/2003 4:30,18.3,1,0,1,12.7,1,10.2,1
1/6/2003 4:45,19.4,1,0,1,12.5,1,10.3,1
1/6/2003 5:00,19.9,1,0,1,12.4,1,10.5,1
1/6/2003 5:15,20.2,1,0,1,12.3,1,10.6,1
1/6/2003 5:30,20.6,1,0,1,12.2,1,10.7,1
1/6/2003 5:45,20.8,1,0,1,12.2,1,10.9,1
1/6/2003 6:00,20.9,1,0,1,12.1,1,11,1
1/6/2003 6:15,20.1,1,0,1,12,1,11.1,1
1/6/2003 6:30,20.6,1,0,1,11.9,1,11.2,1
1/6/2003 6:45,19.5,1,0,1,11.9,1,11.3,1
1/6/2003 7:00,18.3,1,0,1,11.8,1,11.5,1
1/6/2003 7:15,17.5,1,0,1,11.8,1,11.6,1
1/6/2003 7:30,17,1,0,1,11.8,1,11.7,1
1/6/2003 7:45,17.7,1,0,1,11.7,1,11.8,1
1/6/2003 8:00,20.8,1,0,1,11.6,1,11.9,1
1/6/2003 8:15,20.4,1,0,1,11.6,1,12,1
1/6/2003 8:30,18.3,1,0,1,11.6,1,12,1
1/6/2003 8:45,17.7,1,0,1,11.6,1,12.1,1
1/6/2003 9:00,17.1,1,0,1,11.7,1,12.2,1
1/6/2003 9:15,16.5,1,0,1,11.9,1,12.3,1
1/6/2003 9:30,16.1,1,0,1,11.9,1,12.4,1
1/6/2003 9:45,15.8,1,0,1,11.9,1,12.4,1
1/6/2003 10:00,15.4,1,0,1,12,1,12.5,1
1/6/2003 10:15,14.8,1,0,1,11.8,1,12.6,1
1/6/2003 10:30,14.5,1,0,1,11.6,1,12.7,1
1/6/2003 10:45,13.2,1,0,1,11.4,1,12.7,1
1/6/2003 11:00,14,1,0,1,11.3,1,12.8,1
1/6/2003 11:15,14.2,1,0,1,11.4,1,12.6,1
1/6/2003 11:30,14.3,1,0,1,11.8,1,8.7,1
1/6/2003 11:45,14.4,1,0,1,12.3,1,8.8,1
1/6/2003 12:00,14.5,1,0,1,12.6,1,9,1
1/6/2003 12:15,14.5,1,0,1,12.8,1,7.1,1
1/6/2003 12:30,14.5,1,0,1,12.9,1,7.3,1
1/6/2003 12:45,14.5,1,0,1,12.9,1,7.5,1
1/6/2003 13:00,14.5,1,0,1,12.8,1,7.7,1
1/6/2003 13:15,14.5,1,0,1,12.8,1,7.8,1
1/6/2003 13:30,14.4,1,0,1,12.7,1,8,1
1/6/2003 13:45,14.4,1,0,1,12.7,1,8.1,1
1/6/2003 14:00,14.4,1,0,1,12.7,1,8.3,1
1/6/2003 14:15,14.4,1,0,1,12.8,1,8.4,1
1/6/2003 14:30,14.4,1,0,1,12.8,1,8.6,1
1/6/2003 14:45,14.4,1,0,1,12.9,1,8.8,1
1/6/2003 15:00,14.4,1,0,1,13,1,8.9,1
1/6/2003 15:15,14.4,1,0,1,13.1,1,9.1,1
1/6/2003 15:30,14.4,1,0,1,13.1,1,9.2,1
1/6/2003 15:45,14.3,1,0,1,13.2,1,9.3,1
1/6/2003 16:00,14.3,1,0,1,13.1,1,9.5,1
1/6/2003 16:15,14.3,1,0,1,13.1,1,9.6,1
1/6/2003 16:30,14.2,1,0,1,13,1,9.8,1
1/6/2003 16:45,14.1,1,0,1,12.9,1,9.9,1
1/6/2003 17:00,14,1,0,1,12.8,1,10.1,1
1/6/2003 17:15,13.9,1,0,1,12.7,1,10.2,1
1/6/2003 17:30,13.8,1,0,1,12.6,1,10.4,1
1/6/2003 17:45,14.1,1,0,1,12.6,1,10.5,1
1/6/2003 18:00,14.4,1,0,1,12.5,1,10.7,1
1/6/2003 18:15,14.5,1,0,1,12.4,1,10.8,1
1/6/2003 18:30,14.6,1,0,1,12.3,1,11,1
1/6/2003 18:45,14.6,1,0,1,12.2,1,11.1,1
1/6/2003 19:00,14.6,1,0,1,12,1,11.3,1
1/6/2003 19:15,14.5,1,0,1,11.9,1,11.4,1
1/6/2003 19:30,14.4,1,0,1,11.8,1,11.5,1
1/6/2003 19:45,16.7,1,0,1,11.7,1,11.7,1
1/6/2003 20:00,20,1,0,1,11.7,1,11.8,1
1/6/2003 20:15,18.8,1,0,1,11.7,1,11.9,1
1/6/2003 20:30,19.1,1,0,1,11.7,1,12,1
1/6/2003 20:45,20.4,1,0,1,11.7,1,12.1,1
1/6/2003 21:00,21.2,1,0,1,11.7,1,12.2,1
1/6/2003 21:15,21.7,1,0,1,11.8,1,12.3,1
1/6/2003 21:30,21.7,1,0,1,11.8,1,12.4,1
1/6/2003 21:45,21.6,1,0,1,11.9,1,12.5,1
1/6/2003 22:00,21.8,1,0,1,11.9,1,12.6,1
1/6/2003 22:15,21.8,1,0,1,12,1,12.7,1
1/6/2003 22:30,21,1,0,1,12.1,1,12.8,1
1/6/2003 22:45,22.2,1,0,1,12.1,1,12.9,1
1/6/2003 23:00,22.1,1,0,1,12.2,1,13,1
1/6/2003 23:15,19.8,1,0,1,12.5,1,13.1,1
1/6/2003 23:30,19,1,0,1,13.9,1,13.1,1
1/6/2003 23:45,18.4,1,0,1,15.1,1,13.2,1
1/7/2003 0:00,17.9,1,0,1,16.2,1,13.3,1
1/7/2003 0:15,17.6,1,0,1,16.7,1,13.4,1
1/7/2003 0:30,17.2,1,0,1,16,1,13.4,1
1/7/2003 0:45,17,1,0,1,15.5,1,13.5,1
1/7/2003 1:00,19.7,1,0,1,15.1,1,13.6,1
1/7/2003 1:15,21.6,1,0,1,14.8,1,13.6,1
1/7/2003 1:30,19.4,1,0,1,14.6,1,13.7,1
1/7/2003 1:45,18.8,1,0,1,14.4,1,7,1
1/7/2003 2:00,18.5,1,0,1,14.3,1,7.2,1
1/7/2003 2:15,18,1,0,1,14.3,1,7.4,1
1/7/2003 2:30,17.6,1,0,1,14.2,1,7.6,1
1/7/2003 2:45,17.2,1,0,1,14.2,1,7.8,1
1/7/2003 3:00,16.8,1,0,1,14.1,1,8,1
1/7/2003 3:15,16.5,1,0,1,14,1,8.2,1
1/7/2003 3:30,16.2,1,0,1,13.8,1,8.4,1
1/7/2003 3:45,16.3,1,0,1,13.7,1,8.5,1
1/7/2003 4:00,18.2,1,0,1,13.6,1,8.7,1
1/7/2003 4:15,19.3,1,0,1,13.6,1,8.9,1
1/7/2003 4:30,18.6,1,0,1,13.5,1,9,1
1/7/2003 4:45,19.9,1,0,1,13.4,1,9.2,1
1/7/2003 5:00,20.2,1,0,1,13.4,1,9.3,1
1/7/2003 5:15,20.3,1,0,1,13.3,1,9.5,1
1/7/2003 5:30,20.6,1,0,1,13.3,1,9.6,1
1/7/2003 5:45,20.8,1,0,1,13.2,1,9.7,1
1/7/2003 6:00,20,1,0,1,13.2,1,9.9,1
1/7/2003 6:15,21.1,1,0,1,13.2,1,10,1
1/7/2003 6:30,21.3,1,0,1,13.1,1,10.2,1
1/7/2003 6:45,20,1,0,1,13.1,1,10.3,1
1/7/2003 7:00,18.9,1,0,1,13,1,10.5,1